Carlsbad, CA

6:10 PM PST on February 21, 2017 (GMT -0800)
McClellan-Palomar

Weather History for KCRQ - August, 2013

Change the Weather History Date:

Saturday, August 24, 2013

  Actual Average Record
Temperature  
Mean Temperature 68 °F -  
Max Temperature 73 °F 72 °F 82 °F (2010)
Min Temperature 64 °F 62 °F 57 °F (2002)
Cooling Degree Days 4    
Growing Degree Days 18 (Base 50)    
Moisture  
Dew Point 61 °F    
Average Humidity 79    
Maximum Humidity 88    
Minimum Humidity 64    
Precipitation  
Precipitation 0.00 in - - ()
Sea Level Pressure  
Sea Level Pressure 29.82 in    
Wind  
Wind Speed 3 mph (WSW)    
Max Wind Speed 9 mph    
Max Gust Speed -    
Visibility 8 miles    
Events      
Averages and records for this station are not official NWS values.
T = Trace of Precipitation, MM = Missing Value Source: NWS Daily Summary

Daily Weather History Graph

Daily Weather History Graph

Search for Another Location

Airport or City:

Trip Planner

Search our weather history database for the weather conditions in past years. The results will help you decide how hot, cold, wet, or windy it might be!

Date:

Astronomy

Aug. 24, 2013 Rise Set
Actual Time 6:18 AM PDT 7:23 PM PDT
Civil Twilight 5:52 AM PDT 7:49 PM PDT
Nautical Twilight 5:22 AM PDT 8:19 PM PDT
Astronomical Twilight 4:50 AM PDT 8:51 PM PDT
Moon 9:37 PM PDT (8/24) 10:07 AM PDT (8/24)
Length of Visible Light 13h 56m
Length of Day
13h 05m
Waning Gibbous, 83% of the Moon is Illuminated
Aug 24
Waning Gibbous
Aug 28
Last Quarter
Sep 5
New
Sep 12
First Quarter
Sep 19
Full

Hourly Weather History & Observations

Time (PDT) Temp. Dew Point Humidity Pressure Visibility Wind Dir Wind Speed Gust Speed Precip Events Conditions
12:53 AM 66.0 °F 62.1 °F 87% 29.81 in 9.0 mi Calm Calm - N/A   Mostly Cloudy
1:53 AM 66.0 °F 61.0 °F 84% 29.80 in 7.0 mi SW 3.5 mph - N/A   Overcast
2:53 AM 66.0 °F 61.0 °F 84% 29.81 in 8.0 mi West 3.5 mph - N/A   Overcast
3:00 AM 66.2 °F 60.8 °F 83% 29.81 in 8.0 mi Calm Calm - N/A   Unknown
3:53 AM 66.0 °F 61.0 °F 84% 29.81 in 8.0 mi Calm Calm - N/A   Unknown
4:00 AM 66.2 °F 60.8 °F 83% 29.81 in 8.0 mi Calm Calm - N/A   Overcast
4:23 AM 66.2 °F 60.8 °F 83% 29.81 in 7.0 mi Calm Calm - N/A   Unknown
4:53 AM 66.0 °F 61.0 °F 84% 29.80 in 7.0 mi Calm Calm - N/A   Unknown
5:08 AM 66.2 °F 60.8 °F 83% 29.81 in 8.0 mi West 3.5 mph - N/A   Overcast
5:53 AM 64.9 °F 61.0 °F 87% 29.81 in 7.0 mi Calm Calm - N/A   Overcast
6:53 AM 64.9 °F 60.1 °F 84% 29.81 in 5.0 mi ENE 3.5 mph - N/A   Haze
7:08 AM 64.4 °F 60.8 °F 88% 29.81 in 5.0 mi NNE 3.5 mph - N/A   Haze
7:53 AM 66.0 °F 61.0 °F 84% 29.81 in 5.0 mi Calm Calm - N/A   Haze
8:06 AM 66.2 °F 60.8 °F 83% 29.82 in 5.0 mi Calm Calm - N/A   Haze
8:53 AM 66.9 °F 61.0 °F 81% 29.82 in 7.0 mi Variable 5.8 mph - N/A   Scattered Clouds
9:53 AM 70.0 °F 60.1 °F 71% 29.82 in 8.0 mi West 4.6 mph - N/A   Clear
10:53 AM 70.0 °F 60.1 °F 71% 29.83 in 10.0 mi West 9.2 mph - N/A   Clear
11:53 AM 71.1 °F 60.1 °F 68% 29.83 in 10.0 mi WSW 8.1 mph - N/A   Clear
12:53 PM 71.1 °F 60.1 °F 68% 29.82 in 10.0 mi WSW 6.9 mph - N/A   Clear
1:53 PM 72.0 °F 60.1 °F 66% 29.81 in 10.0 mi West 8.1 mph - N/A   Clear
2:53 PM 71.1 °F 59.0 °F 66% 29.78 in 10.0 mi SW 8.1 mph - N/A   Clear
3:53 PM 73.0 °F 60.1 °F 64% 29.78 in 10.0 mi West 5.8 mph - N/A   Clear
4:53 PM 72.0 °F 60.1 °F 66% 29.79 in 10.0 mi SW 6.9 mph - N/A   Clear
5:53 PM 71.1 °F 60.1 °F 68% 29.79 in 10.0 mi SW 5.8 mph - N/A   Clear
6:53 PM 69.1 °F 60.1 °F 73% 29.80 in 10.0 mi West 5.8 mph - N/A   Clear
7:53 PM 66.9 °F 60.1 °F 79% 29.84 in 10.0 mi West 4.6 mph - N/A   Clear
8:53 PM 66.0 °F 60.1 °F 81% 29.85 in 10.0 mi Calm Calm - N/A   Partly Cloudy
9:53 PM 66.9 °F 60.1 °F 79% 29.86 in 10.0 mi Calm Calm - N/A   Clear
10:53 PM 66.0 °F 60.1 °F 81% 29.88 in 10.0 mi SSW 3.5 mph - N/A   Clear
11:27 PM 66.2 °F 60.8 °F 83% 29.88 in 10.0 mi SW 3.5 mph - N/A   Partly Cloudy
11:43 PM 66.2 °F 60.8 °F 83% 29.88 in 10.0 mi Calm Calm - N/A   Mostly Cloudy
11:53 PM 66.0 °F 61.0 °F 84% 29.87 in 10.0 mi Calm Calm - N/A   Mostly Cloudy